SR5NLK-1 Weather Reports


time (UTC)temp
F
wind
direction
speed
knots
gust
knots
rain 1hr
in
rain 24hr
in
rain mn
in
humidity
%
barometer
mb
20260506051231 68 22 2.6 6.1 0.00 0.00 0.00 58 1055.4
20260506050731 67 22 2.6 7.0 0.00 0.00 0.00 60 1081.5
20260506050231 66 45 2.6 6.1 0.00 0.00 0.00 63 1090.9
20260506044731 62 67 2.6 4.3 0.00 0.00 0.00 74 1039.7
20260506044230 58 22 4.3 6.1 0.00 0.00 0.00 77 988.4
20260506043731 55 22 2.6 7.0 0.00 0.00 0.00 75 1042.8
20260506043231 55 67 5.2 7.0 0.00 0.00 0.00 75 1075.2
20260506042731 55 67 7.0 7.0 0.00 0.00 0.00 74 1094.1
20260506042231 55 90 1.7 6.1 0.00 0.00 0.00 74 1045.9
20260506041731 55 67 6.1 6.1 0.00 0.00 0.00 73 1084.6
20260506041231 56 135 1.7 5.2 0.00 0.00 0.00 73 1046.0
20260506040930 56 112 2.6 7.8 0.00 0.00 0.00 72 1042.8
20260506040731 56 67 2.6 7.8 0.00 0.00 0.00 72 1058.5
20260506040231 57 112 3.5 7.0 0.00 0.00 0.00 73 1087.8
20260506035731 57 67 5.2 7.0 0.00 0.00 0.00 76 1036.5
20260506035231 56 45 1.7 5.2 0.00 0.00 0.00 78 1072.1
20260506034731 55 337 3.5 7.0 0.00 0.00 0.00 80 1082.4
20260506034231 54 45 1.7 4.3 0.00 0.00 0.00 80 1049.1
20260506033731 53 67 1.7 7.0 0.00 0.00 0.00 80 995.3
20260506033630 53 90 3.5 7.0 0.00 0.00 0.00 80 927.0
20260506033231 53 45 5.2 5.2 0.00 0.00 0.00 80 1030.3
20260506032731 53 67 2.6 6.1 0.00 0.00 0.00 80 1090.3
20260506032231 52 112 0.0 8.7 0.00 0.00 0.00 79 1043.1
20260506031731 52 67 8.7 8.7 0.00 0.00 0.00 79 1078.4
20260506031231 52 67 2.6 7.0 0.00 0.00 0.00 79 997.9
20260506030731 52 22 7.0 7.0 0.00 0.00 0.00 78 1055.4
20260506030330 52 45 3.5 6.1 0.00 0.00 0.00 78 1089.8
20260506030231 52 67 3.5 6.1 0.00 0.00 0.00 78 1084.6
20260506025731 52 45 2.6 6.1 0.00 0.00 0.00 77 1075.2
20260506025231 52 22 2.6 6.1 0.00 0.00 0.00 77 1087.8
20260506024731 52 45 2.6 5.2 0.00 0.00 0.00 77 1046.0
20260506024231 52 45 2.6 5.2 0.00 0.00 0.00 76 1084.7
20260506023731 52 45 1.7 6.1 0.00 0.00 0.00 76 1081.4
20260506023231 52 90 0.9 6.1 0.00 0.00 0.00 76 1055.2
20260506023030 52 22 3.5 5.2 0.00 0.00 0.00 76 1008.3
20260506022731 52 45 3.5 5.2 0.00 0.00 0.00 76 1055.4
20260506022231 52 45 0.9 4.3 0.00 0.00 0.00 76 988.4
20260506021731 52 90 3.5 5.2 0.00 0.00 0.00 75 1072.1
20260506021231 52 22 2.6 7.0 0.00 0.00 0.00 75 1078.4
20260506020731 52 22 3.5 6.1 0.00 0.00 0.00 75 1026.6
20260506020231 52 45 0.9 6.1 0.00 0.00 0.00 75 1065.8
20260506015730 52 22 0.0 3.5 0.00 0.00 0.00 75 1078.4
20260506015231 52 45 1.7 6.1 0.00 0.00 0.00 75 1081.5
20260506014732 52 45 1.7 6.1 0.00 0.00 0.00 75 1078.3
20260506014231 52 22 3.5 5.2 0.00 0.00 0.00 75 1036.6
20260506013732 52 45 1.7 5.2 0.00 0.00 0.00 75 1087.8
20260506013231 52 22 1.7 4.3 0.00 0.00 0.00 74 1027.1
20260506012731 53 45 1.7 5.2 0.00 0.00 0.00 74 1065.7
20260506012430 53 45 5.2 5.2 0.00 0.00 0.00 74 1010.4
20260506012231 53 90 1.7 4.3 0.00 0.00 0.00 74 1033.4
20260506011731 53 22 2.6 7.0 0.00 0.00 0.00 74 1075.2
20260506011231 53 45 4.3 7.8 0.00 0.00 0.00 74 994.7
20260506010731 53 45 4.3 8.7 0.00 0.00 0.00 74 1046.0
20260506010231 53 22 2.6 4.3 0.00 0.00 0.00 74 1075.2
20260506005731 53 270 2.6 10.4 0.00 0.00 0.00 75 1062.7
20260506005231 53 90 7.0 9.6 0.00 0.00 0.00 75 1039.7
20260506005130 53 67 5.2 5.2 0.00 0.00 0.00 75 1055.4
20260506004731 53 270 1.7 4.3 0.00 0.00 0.00 75 1042.8
20260506004239 53 22 1.7 9.6 0.00 0.00 0.00 75 1027.1
20260506004231 53 22 1.7 9.6 0.00 0.00 0.00 75 1027.1
20260506003731 54 22 4.3 7.0 0.00 0.00 0.00 75 1012.9
20260506003231 54 67 0.9 5.2 0.00 0.00 0.00 75 1060.3
20260506002731 54 0 1.7 5.2 0.00 0.00 0.00 75 1042.1
20260506002231 54 45 0.0 2.6 0.00 0.00 0.00 75 1053.4
20260506001831 54 45 0.9 5.2 0.00 0.00 0.00 75 1080.8
20260506001731 54 22 0.9 5.2 0.00 0.00 0.00 75 1060.9
20260506001231 54 45 2.6 5.2 0.00 0.00 0.00 75 1043.3
20260506000731 55 0 3.5 3.5 0.00 0.00 0.00 75 989.4
20260506000232 55 0 1.7 4.3 0.00 0.00 0.00 75 1049.0
20260505235732 55 22 1.7 4.3 0.00 0.00 0.00 75 1083.2
20260505235231 55 67 4.3 7.8 0.00 0.00 0.00 75 956.0
20260505234731 55 22 3.5 6.1 0.00 0.00 0.00 75 964.8
20260505234531 55 22 4.3 6.1 0.00 0.00 0.00 75 1032.0
20260505234232 55 90 1.7 7.0 0.00 0.00 0.00 75 1078.4
20260505233732 55 45 2.6 5.2 0.00 0.00 0.00 75 1050.2
20260505233232 56 22 1.7 7.8 0.00 0.00 0.00 75 1081.5
20260505232732 56 0 6.1 6.1 0.00 0.00 0.00 75 1078.4
20260505232232 56 0 1.7 7.0 0.00 0.00 0.00 75 1081.6
20260505231732 56 45 2.6 7.0 0.00 0.00 0.00 75 1007.7
20260505231231 57 0 6.1 6.1 0.00 0.00 0.00 75 1104.9
20260505230732 57 0 1.7 7.8 0.00 0.00 0.00 75 1087.8
20260505230232 57 0 7.8 7.8 0.00 0.00 0.00 75 1012.4
20260505225732 57 0 3.5 7.8 0.00 0.00 0.00 74 963.6
20260505225232 58 0 2.6 7.0 0.00 0.00 0.00 74 1081.5
20260505224732 58 22 2.6 4.3 0.00 0.00 0.00 74 946.6
20260505224232 58 45 0.0 8.7 0.00 0.00 0.00 74 1007.0
20260505223931 58 67 4.3 8.7 0.00 0.00 0.00 73 1090.9
20260505223732 58 67 2.6 4.3 0.00 0.00 0.00 73 922.9
20260505223232 58 0 1.7 5.2 0.00 0.00 0.00 73 1002.5
20260505222732 59 67 3.5 7.0 0.00 0.00 0.00 73 1051.9
20260505222232 59 45 0.0 8.7 0.00 0.00 0.00 73 1045.7
20260505221732 59 22 4.3 6.1 0.00 0.00 0.00 73 953.0
20260505221232 59 67 6.1 7.8 0.00 0.00 0.00 72 1055.4
20260505220732 60 22 1.7 4.3 0.00 0.00 0.00 71 989.1
20260505220631 60 0 1.7 6.1 0.00 0.00 0.00 71 937.9
20260505220232 60 67 1.7 6.1 0.00 0.00 0.00 71 885.3
20260505215732 60 337 3.5 5.2 0.00 0.00 0.00 71 1064.1
20260505215232 60 45 2.6 7.0 0.00 0.00 0.00 70 1103.5
20260505214732 60 22 2.6 9.6 0.00 0.00 0.00 70 1078.4
20260505214232 61 22 1.7 7.8 0.00 0.00 0.00 69 1010.4
20260505213732 61 45 2.6 8.7 0.00 0.00 0.00 69 1010.4
20260505213331 61 22 4.3 7.0 0.00 0.00 0.00 68 1097.2
20260505213232 61 22 2.6 8.7 0.00 0.00 0.00 68 1010.4
20260505212732 62 22 5.2 8.7 0.00 0.00 0.00 68 1004.1
20260505212232 62 22 1.7 7.0 0.00 0.00 0.00 67 1016.7
20260505211732 63 0 7.0 9.6 0.00 0.00 0.00 67 974.3
20260505211232 63 45 4.3 9.6 0.00 0.00 0.00 66 1023.5
20260505210732 64 22 9.6 11.3 0.00 0.00 0.00 66 1045.7
20260505210232 64 315 6.1 10.4 0.00 0.00 0.00 64 972.9
20260505210031 64 0 7.0 7.8 0.00 0.00 0.00 64 1002.7
20260505205732 64 67 7.0 9.6 0.00 0.00 0.00 63 1010.4
20260505205232 65 315 3.5 8.7 0.00 0.00 0.00 63 1045.9
20260505204732 65 45 0.0 12.2 0.00 0.00 0.00 63 965.7
20260505204232 65 0 5.2 10.4 0.00 0.00 0.00 62 1007.3
20260505203732 66 45 3.5 12.2 0.00 0.00 0.00 62 1046.0
20260505203232 66 22 6.1 12.2 0.00 0.00 0.00 61 1010.4
20260505202731 66 22 12.2 12.2 0.00 0.00 0.00 62 997.9
20260505202232 66 0 4.3 11.3 0.00 0.00 0.00 61 923.6
20260505201732 66 22 7.0 13.9 0.00 0.00 0.00 61 926.7
20260505201232 67 45 7.0 13.0 0.00 0.00 0.00 59 971.7
20260505200732 67 0 7.8 10.4 0.00 0.00 0.00 58 1046.0
20260505200232 67 22 4.3 10.4 0.00 0.00 0.00 57 930.2
20260505195732 68 22 9.6 13.0 0.00 0.00 0.00 55 1004.1
20260505195431 68 67 7.0 10.4 0.00 0.00 0.00 55 1013.5
20260505195232 68 45 7.0 10.4 0.00 0.00 0.00 54 965.4
20260505194732 68 0 7.0 11.3 0.00 0.00 0.00 52 997.9
20260505194232 68 22 7.0 8.7 0.00 0.00 0.00 50 1039.7
20260505193732 69 22 5.2 7.8 0.00 0.00 0.00 49 997.9
20260505193232 69 22 4.3 7.8 0.00 0.00 0.00 47 920.5
20260505192732 69 0 4.3 8.7 0.00 0.00 0.00 45 1090.9
20260505192232 69 0 5.2 7.0 0.00 0.00 0.00 42 1055.4
20260505192131 69 0 3.5 7.0 0.00 0.00 0.00 41 1055.4
20260505191732 69 22 1.7 7.8 0.00 0.00 0.00 40 1081.5
20260505191232 69 315 3.5 7.8 0.00 0.00 0.00 36 1004.1
20260505190732 70 135 0.0 3.5 0.00 0.00 0.00 34 920.5
20260505190232 70 225 0.0 1.7 0.00 0.00 0.00 34 1045.9
20260505185732 70 337 1.7 6.1 0.00 0.00 0.00 33 1010.4
20260505185232 70 315 2.6 2.6 0.00 0.00 0.00 32 974.7
20260505184831 71 22 0.0 1.7 0.00 0.00 0.00 31 1039.7
20260505184732 71 112 0.0 1.7 0.00 0.00 0.00 31 974.8
20260505184239 71 135 0.9 1.7 0.00 0.00 0.00 31 1097.2
20260505184232 71 135 0.9 1.7 0.00 0.00 0.00 31 1097.2
20260505183732 71 135 0.0 1.7 0.00 0.00 0.00 30 1097.2
20260505183232 72 112 0.0 1.7 0.00 0.00 0.00 30 1100.3
20260505182732 72 135 0.9 1.7 0.00 0.00 0.00 29 1060.2
20260505182232 73 180 0.9 1.7 0.00 0.00 0.00 29 1039.7
20260505181732 73 157 0.9 2.6 0.00 0.00 0.00 29 1019.7
20260505181531 73 135 2.6 2.6 0.00 0.00 0.00 28 1058.5
20260505181232 74 135 0.9 2.6 0.00 0.00 0.00 28 1094.1
20260505180732 75 157 1.7 3.5 0.00 0.00 0.00 28 1042.8
20260505180232 75 112 3.5 4.3 0.00 0.00 0.00 28 1055.3
20260505175732 76 135 2.6 4.3 0.00 0.00 0.00 27 1055.4
20260505175232 76 157 4.3 4.3 0.00 0.00 0.00 27 1100.3
20260505174732 77 157 2.6 4.3 0.00 0.00 0.00 27 1100.3
20260505174231 77 112 0.9 2.6 0.00 0.00 0.00 27 1007.2
20260505173732 78 157 0.9 4.3 0.00 0.00 0.00 26 1004.1
20260505173232 78 157 4.3 6.1 0.00 0.00 0.00 26 1013.5
20260505172732 78 180 0.9 4.3 0.00 0.00 0.00 26 1100.3
20260505172232 78 157 1.7 5.2 0.00 0.00 0.00 26 1013.5
20260505171733 78 180 1.7 4.3 0.00 0.00 0.00 26 1019.7
20260505171232 78 180 2.6 5.2 0.00 0.00 0.00 26 1010.4
20260505170931 78 157 3.5 8.7 0.00 0.00 0.00 26 903.5
20260505170732 78 135 8.7 8.7 0.00 0.00 0.00 26 965.4
20260505170232 79 202 3.5 6.1 0.00 0.00 0.00 26 1058.5
20260505165732 79 180 3.5 7.0 0.00 0.00 0.00 26 1046.0
20260505165232 79 157 3.5 8.7 0.00 0.00 0.00 24 1049.1
20260505164732 80 157 1.7 5.2 0.00 0.00 0.00 24 1042.8
20260505164232 80 135 2.6 7.0 0.00 0.00 0.00 24 1013.5
20260505163733 80 157 3.5 8.7 0.00 0.00 0.00 24 1018.4
20260505163631 80 180 5.2 8.7 0.00 0.00 0.00 24 1055.4
20260505163232 80 157 2.6 10.4 0.00 0.00 0.00 23 1013.4
20260505162732 81 157 7.8 7.8 0.00 0.00 0.00 23 1010.4
20260505162232 81 180 6.1 7.0 0.00 0.00 0.00 23 1049.1
20260505161732 81 180 2.6 10.4 0.00 0.00 0.00 23 1052.2
20260505161232 82 202 4.3 10.4 0.00 0.00 0.00 23 1055.4
20260505160732 82 157 5.2 13.0 0.00 0.00 0.00 22 974.8
20260505160331 82 270 7.0 7.8 0.00 0.00 0.00 22 1084.7
20260505160232 83 202 7.8 10.4 0.00 0.00 0.00 22 1042.8
20260505153232 86 180 1.7 8.7 0.00 0.00 0.00 22 1090.9
20260505153031 86 180 7.0 7.0 0.00 0.00 0.00 22 1089.6
20260505152732 86 157 5.2 7.0 0.00 0.00 0.00 22 1010.4
20260505152232 86 180 2.6 8.7 0.00 0.00 0.00 22 1039.7
20260505151732 86 135 1.7 9.6 0.00 0.00 0.00 22 962.3
20260505151232 87 112 4.3 9.6 0.00 0.00 0.00 22 994.7
20260505150732 87 202 9.6 12.2 0.00 0.00 0.00 22 1045.9
20260505150310 87 225 2.6 7.0 0.00 0.00 0.00 23 1042.8
20260505150232 87 225 2.6 7.0 0.00 0.00 0.00 23 1042.8
20260505140233 87 157 0.9 3.5 0.00 0.00 0.00 24 1045.9
20260505130233 89 180 5.2 7.0 0.00 0.00 0.00 24 1049.1
20260505124733 90 225 3.5 7.8 0.00 0.00 0.00 24 1050.8
20260505124532 91 270 7.8 7.8 0.00 0.00 0.00 24 968.5
20260505124233 91 292 4.3 8.7 0.00 0.00 0.00 24 1013.5
20260505123733 91 202 3.5 10.4 0.00 0.00 0.00 24 1058.5
20260505123233 92 225 6.1 7.8 0.00 0.00 0.00 24 974.7
20260505122819 92 180 2.6 7.8 0.00 0.00 0.00 24 1016.7
20260505122733 92 180 2.6 7.8 0.00 0.00 0.00 24 1016.7
20260505122233 92 225 3.5 7.0 0.00 0.00 0.00 24 1046.0
20260505121733 92 112 7.0 10.4 0.00 0.00 0.00 24 1090.9
20260505121232 92 157 10.4 10.4 0.00 0.00 0.00 25 1021.2
20260505120733 92 135 1.7 6.1 0.00 0.00 0.00 25 929.8
20260505120233 91 247 6.1 12.2 0.00 0.00 0.00 25 1084.6
20260505115733 91 157 7.8 11.3 0.00 0.00 0.00 26 1085.0
20260505115233 91 157 4.3 7.8 0.00 0.00 0.00 26 1016.6
20260505114733 91 202 6.1 10.4 0.00 0.00 0.00 26 1007.3
20260505114233 91 247 5.2 7.0 0.00 0.00 0.00 26 1081.5
20260505113932 91 202 3.5 5.2 0.00 0.00 0.00 26 1067.9
20260505113733 91 270 3.5 5.2 0.00 0.00 0.00 27 1061.6
20260505113233 91 135 1.7 5.2 0.00 0.00 0.00 26 1009.1
20260505112733 92 180 2.6 10.4 0.00 0.00 0.00 27 1100.3
20260505112233 92 202 5.2 7.0 0.00 0.00 0.00 27 1037.1
20260505111733 91 180 6.1 6.1 0.00 0.00 0.00 28 1036.5
20260505111233 91 270 1.7 7.0 0.00 0.00 0.00 28 1045.9
20260505110733 91 202 1.7 6.1 0.00 0.00 0.00 28 971.6
20260505110632 91 202 2.6 7.0 0.00 0.00 0.00 27 1013.5
20260505110233 91 270 3.5 7.8 0.00 0.00 0.00 28 1001.0
20260505101733 89 247 4.3 7.0 0.00 0.00 0.00 29 1058.7
20260505101233 90 45 1.7 4.3 0.00 0.00 0.00 29 1049.1
20260505100733 91 45 2.6 4.3 0.00 0.00 0.00 30 1004.1
20260505100233 90 180 2.6 4.3 0.00 0.00 0.00 30 948.0
20260505100032 90 135 1.7 4.3 0.00 0.00 0.00 31 1067.9
20260505095733 89 202 2.6 6.1 0.00 0.00 0.00 31 1015.2
20260505095233 89 180 3.5 7.0 0.00 0.00 0.00 31 949.7
20260505094733 88 202 4.3 4.3 0.00 0.00 0.00 32 959.1
20260505094233 88 247 0.0 5.2 0.00 0.00 0.00 32 999.2
20260505093733 88 225 1.7 3.5 0.00 0.00 0.00 32 1044.4
20260505093233 89 337 1.7 7.0 0.00 0.00 0.00 31 1014.8
20260505092732 89 247 3.5 5.2 0.00 0.00 0.00 32 1072.1
20260505092233 89 157 2.6 5.2 0.00 0.00 0.00 32 1056.7
20260505091733 89 202 2.6 3.5 0.00 0.00 0.00 31 962.3
20260505091233 89 157 3.5 6.1 0.00 0.00 0.00 31 1087.8
20260505090733 90 157 5.2 5.2 0.00 0.00 0.00 30 1053.4
20260505090233 90 135 1.7 7.8 0.00 0.00 0.00 29 1021.2
20260505085733 91 157 3.5 6.1 0.00 0.00 0.00 30 1094.0
20260505085432 91 157 5.2 6.1 0.00 0.00 0.00 30 1046.1
20260505085233 91 135 2.6 5.2 0.00 0.00 0.00 30 956.0
20260505084733 91 135 3.5 6.1 0.00 0.00 0.00 30 1076.0
20260505084233 91 0 0.9 4.3 0.00 0.00 0.00 30 1090.9
20260505083733 91 135 0.0 6.1 0.00 0.00 0.00 31 1041.9
20260505083233 91 135 1.7 6.1 0.00 0.00 0.00 31 1090.9
20260505082733 90 135 0.9 5.2 0.00 0.00 0.00 31 997.4
20260505082233 90 157 2.6 4.3 0.00 0.00 0.00 32 920.7
20260505082132 90 180 0.9 3.5 0.00 0.00 0.00 32 1056.4
20260505081733 90 0 0.9 1.7 0.00 0.00 0.00 31 1101.1
20260505081233 91 157 1.7 3.5 0.00 0.00 0.00 31 987.0
20260505080733 93 315 0.0 1.7 0.00 0.00 0.00 30 927.9
20260505080233 94 67 2.6 4.3 0.00 0.00 0.00 30 980.9
20260505075733 95 157 0.9 3.5 0.00 0.00 0.00 30 1018.1
20260505075234 94 202 1.7 4.3 0.00 0.00 0.00 30 1015.5
20260505074832 94 157 1.7 4.3 0.00 0.00 0.00 31 1019.8
20260505074733 93 135 2.6 3.5 0.00 0.00 0.00 31 1013.5
20260505074233 93 180 0.0 1.7 0.00 0.00 0.00 31 970.1
20260505073733 92 157 0.9 2.6 0.00 0.00 0.00 31 1055.3
20260505073233 92 112 2.6 4.3 0.00 0.00 0.00 31 952.9
20260505072733 92 157 2.6 4.3 0.00 0.00 0.00 31 1084.7
20260505072233 91 0 0.9 2.6 0.00 0.00 0.00 32 1009.1
20260505071741 92 180 1.7 4.3 0.00 0.00 0.00 31 1064.8
20260505071733 92 180 1.7 4.3 0.00 0.00 0.00 31 1064.8
20260505071532 93 135 2.6 4.3 0.00 0.00 0.00 31 974.6
20260505071233 93 22 0.9 3.5 0.00 0.00 0.00 32 1052.2
20260505070733 93 90 2.6 4.3 0.00 0.00 0.00 32 1036.7
20260505070233 91 157 0.9 2.6 0.00 0.00 0.00 34 1058.4
20260505065733 91 0 0.9 3.5 0.00 0.00 0.00 34 1020.1
20260505065233 89 67 0.9 2.6 0.00 0.00 0.00 36 1011.1
20260505064733 87 67 1.7 1.7 0.00 0.00 0.00 38 1010.4
20260505063959 85 90 1.7 4.3 0.00 0.00 0.00 40 1014.8
20260505063459 84 112 1.7 5.2 0.00 0.00 0.00 40 1088.4
20260505063000 82 45 2.6 4.3 0.00 0.00 0.00 41 1033.4
20260505062459 81 90 0.0 3.5 0.00 0.00 0.00 43 1090.6
20260505062000 80 67 1.7 4.3 0.00 0.00 0.00 45 1081.5
20260505061459 79 90 4.3 4.3 0.00 0.00 0.00 46 996.7
20260505061158 78 112 0.9 3.5 0.00 0.00 0.00 47 1042.8
20260505061000 78 0 2.6 3.5 0.00 0.00 0.00 48 1001.0
20260505060500 76 45 1.7 4.3 0.00 0.00 0.00 51 1004.1